Terug naar catalogus

STARLINK-1372

ActiefCommunicatieVLEO
NORAD 45543·PAYLOAD·🇺🇸 United States

Gelanceerd Apr 22, 2020 vanaf Cape Canaveral Space Force Station

Loading…

Volgende Passages (komende 24 uur)

TLE

VersSource: CelesTrak SupGP

Epoch: Sep 15, 2026, 02:37 UTC

1 45543C 20025N   26258.10951389  .00023277  00000+0  45852-3 0  2584
2 45543  53.1518 290.3689 0003405  52.2938 302.6939 15.46615622    15

Volg STARLINK-1372 in realtime met AllMySat

Download on the App Store